Regional Weather Roundup
Issued by NWS

Home | Current Version | Previous Version | Graphics & Text | Print | Product List | Glossary On
Versions: 1 2 3 4 5 6 7 8 9 10 11 12 13 14 15 16 17 18 19 20 21 22 23 24 25 26 27 28 29 30 31 32 33 34 35 36 37 38 39 40 41 42 43 44 45 46 47 48 49 50
000
ASUS43 KBIS 262002
RWRND

NORTH DAKOTA REGIONAL WEATHER ROUNDUP
NATIONAL WEATHER SERVICE BISMARCK ND
300 PM CDT WED APR 26 2017

NOTE: "FAIR" INDICATES FEW OR NO CLOUDS BELOW 12,000 FEET WITH NO
SIGNIFICANT WEATHER AND/OR OBSTRUCTIONS TO VISIBILITY.


NDZ001>003-009>011-017-262100-
NORTHWEST NORTH DAKOTA

CITY           SKY/WX    TMP DP  RH WIND       PRES   REMARKS
WILLISTON      FAIR      49  23  36 MISG      29.82F
MINOT          FAIR      48  23  37 N18G24    29.80F
MINOT AFB      SUNNY     46  21  37 NE17      29.80F
$$

NDZ018>021-031>035-040>046-262100-
SOUTHWEST NORTH DAKOTA

CITY           SKY/WX    TMP DP  RH WIND       PRES   REMARKS
BISMARCK       CLOUDY    44  27  51 N12       29.78F
DICKINSON      FAIR      45  21  38 N12G21    29.76F
GARRISON         N/A     43  22  43 NE13G24   29.78F
HETTINGER ARPT SUNNY     45  24  43 NW9G16    29.77F
$$

NDZ004>008-012>016-024-026-027-054-262100-
NORTHEAST NORTH DAKOTA

CITY           SKY/WX    TMP DP  RH WIND       PRES   REMARKS
GRAND FORKS    LGT SNOW  31  28  89 N20       29.78F FOG     WCI  19
GRND FRKS AFB  MIX PCPN  29  26  89 NE20      29.79S FOG     WCI  16
DEVILS LAKE    CLOUDY    34  26  72 NE21G28   29.80S
$$

NDZ022-023-025-028>030-036>039-047>053-262100-
SOUTHEAST NORTH DAKOTA

CITY           SKY/WX    TMP DP  RH WIND       PRES   REMARKS
FARGO          LGT SNOW  29  27  92 N20       29.74R VSB 3/4 WCI  16
JAMESTOWN      CLOUDY    30  25  81 N15       29.76S WCI  19
$$




USA.gov is the U.S. government's official web portal to all federal, state and local government web resources and services.